TimeMDT,TemperatureF,Dew PointF,Humidity,Sea Level PressureIn,VisibilityMPH,Wind Direction,Wind SpeedMPH,Gust SpeedMPH,PrecipitationIn,Events,Conditions,WindDirDegrees,DateUTC
12:56 AM,53.1,46.0,77,29.94,-9999.0,North,-9999.0,-,N/A,,Unknown,0,2012-10-01 06:56:00
1:56 AM,53.1,45.0,74,29.95,-9999.0,North,-9999.0,-,N/A,,Unknown,0,2012-10-01 07:56:00
2:56 AM,54.0,45.0,72,29.94,-9999.0,North,-9999.0,-,N/A,,Unknown,0,2012-10-01 08:56:00
3:56 AM,55.9,45.0,67,29.95,-9999.0,North,-9999.0,-,N/A,,Unknown,0,2012-10-01 09:56:00
4:56 AM,57.0,45.0,64,29.97,-9999.0,North,-9999.0,-,N/A,,Unknown,0,2012-10-01 10:56:00
5:56 AM,53.1,46.0,77,30.00,-9999.0,North,-9999.0,-,N/A,,Unknown,0,2012-10-01 11:56:00
6:56 AM,55.9,45.0,67,30.04,-9999.0,North,-9999.0,-,N/A,,Unknown,0,2012-10-01 12:56:00
7:56 AM,57.9,46.9,67,30.08,-9999.0,North,-9999.0,-,N/A,,Unknown,0,2012-10-01 13:56:00
8:56 AM,64.0,45.0,50,30.07,-9999.0,North,-9999.0,-,N/A,,Unknown,0,2012-10-01 14:56:00
9:56 AM,64.9,43.0,45,30.10,-9999.0,North,-9999.0,-,N/A,,Unknown,0,2012-10-01 15:56:00
10:56 AM,66.9,45.0,45,30.10,-9999.0,North,-9999.0,-,N/A,,Unknown,0,2012-10-01 16:56:00
11:56 AM,68.0,44.1,42,30.09,-9999.0,North,-9999.0,-,N/A,,Unknown,0,2012-10-01 17:56:00
12:56 PM,70.0,42.1,36,30.06,-9999.0,North,-9999.0,-,N/A,,Unknown,0,2012-10-01 18:56:00
1:56 PM,70.0,39.9,33,30.03,-9999.0,North,-9999.0,-,N/A,,Unknown,0,2012-10-01 19:56:00
2:56 PM,70.0,39.0,32,30.03,-9999.0,North,-9999.0,-,N/A,,Unknown,0,2012-10-01 20:56:00
4:56 PM,69.1,36.0,30,30.01,-9999.0,North,-9999.0,-,N/A,,Unknown,0,2012-10-01 22:56:00
5:56 PM,64.9,37.9,37,30.04,-9999.0,North,-9999.0,-,N/A,,Unknown,0,2012-10-01 23:56:00
6:56 PM,57.9,42.1,56,30.06,-9999.0,North,-9999.0,-,N/A,,Unknown,0,2012-10-02 00:56:00
7:56 PM,53.1,41.0,64,30.09,-9999.0,North,-9999.0,-,N/A,,Unknown,0,2012-10-02 01:56:00
8:56 PM,51.1,39.9,66,30.09,-9999.0,North,-9999.0,-,N/A,,Unknown,0,2012-10-02 02:56:00
9:56 PM,48.0,39.9,74,30.10,-9999.0,North,-9999.0,-,N/A,,Unknown,0,2012-10-02 03:56:00
10:56 PM,46.0,39.9,79,30.09,-9999.0,North,-9999.0,-,N/A,,Unknown,0,2012-10-02 04:56:00
11:56 PM,46.9,39.0,74,30.07,-9999.0,North,-9999.0,-,N/A,,Unknown,0,2012-10-02 05:56:00